KC3BHK-2 Weather Reports


Display with metric or nautical units.
time (UTC)temp
F
wind
direction
speed
MPH
gust
MPH
rain 1hr
in
rain 24hr
in
rain mn
in
humidity
%
barometer
mb
20260901190723 97 207 6.0 7.0 0.00 0.00 0.00
20260901190214 97 195 2.0 8.0 0.00 0.00 0.00
20260901185709 96 194 2.0 6.0 0.00 0.00 0.00
20260901185203 93 203 2.0 8.0 0.00 0.00 0.00
20260901184659 93 197 7.0 8.0 0.00 0.00 0.00
20260901184152 97 224 5.0 10.0 0.00 0.00 0.00
20260901183647 96 108 6.0 8.0 0.00 0.00 0.00
20260901183139 95 169 4.0 5.0 0.00 0.00 0.00
20260901182634 93 184 3.0 5.0 0.00 0.00 0.00
20260901182129 90 194 3.0 6.0 0.00 0.00 0.00
20260901181625 89 221 5.0 6.0 0.00 0.00 0.00
20260901181120 90 248 3.0 6.0 0.00 0.00 0.00
20260901180615 91 193 4.0 10.0 0.00 0.00 0.00
20260901180107 95 253 4.0 7.0 0.00 0.00 0.00
20260901175602 94 187 6.0 6.0 0.00 0.00 0.00
20260901175056 93 228 2.0 6.0 0.00 0.00 0.00
20260901174551 89 269 6.0 10.0 0.00 0.00 0.00
20260901174047 91 211 4.0 10.0 0.00 0.00 0.00
20260901173542 92 231 6.0 10.0 0.00 0.00 0.00
20260901173034 93 221 5.0 8.0 0.00 0.00 0.00
20260901172529 96 214 6.0 9.0 0.00 0.00 0.00
20260901172023 96 191 1.0 8.0 0.00 0.00 0.00
20260901171518 95 145 2.0 6.0 0.00 0.00 0.00
20260901171014 95 145 1.0 6.0 0.00 0.00 0.00
20260901170509 90 180 1.0 4.0 0.00 0.00 0.00
20260901170000 87 231 3.0 6.0 0.00 0.00 0.00
20260901165455 90 219 3.0 4.0 0.00 0.00 0.00
20260901164950 91 153 1.0 2.0 0.00 0.00 0.00
20260901164446 90 90 0.0 3.0 0.00 0.00 0.00
20260901163941 88 153 1.0 6.0 0.00 0.00 0.00
20260901163436 87 195 0.0 6.0 0.00 0.00 0.00
20260901162928 87 271 4.0 5.0 0.00 0.00 0.00
20260901162423 87 221 2.0 5.0 0.00 0.00 0.00
20260901161919 88 233 3.0 7.0 0.00 0.00 0.00
20260901161414 86 226 6.0 9.0 0.00 0.00 0.00
20260901160909 87 236 5.0 8.0 0.00 0.00 0.00
20260901160404 86 257 6.0 9.0 0.00 0.00 0.00
20260901155857 86 231 3.0 5.0 0.00 0.00 0.00
20260901155352 86 165 1.0 4.0 0.00 0.00 0.00
20260901154847 86 219 4.0 4.0 0.00 0.00 0.00
20260901154342 82 194 1.0 6.0 0.00 0.00 0.00
20260901153837 83 219 4.0 6.0 0.00 0.00 0.00
20260901153332 82 218 3.0 8.0 0.00 0.00 0.00
20260901152824 83 224 6.0 8.0 0.00 0.00 0.00
20260901152319 84 228 5.0 6.0 0.00 0.00 0.00
20260901151814 83 197 4.0 8.0 0.00 0.00 0.00
20260901151310 83 226 6.0 9.0 0.00 0.00 0.00
20260901150805 86 240 6.0 10.0 0.00 0.00 0.00
20260901150300 86 228 6.0 8.0 0.00 0.00 0.00
20260901145752 87 214 5.0 8.0 0.00 0.00 0.00
20260901145248 86 240 6.0 12.0 0.00 0.00 0.00
20260901144743 87 249 8.0 13.0 0.00 0.00 0.00
20260901144237 87 224 8.0 9.0 0.00 0.00 0.00
20260901143732 86 218 6.0 10.0 0.00 0.00 0.00
20260901143227 85 238 8.0 9.0 0.00 0.00 0.00
20260901142720 83 236 4.0 9.0 0.00 0.00 0.00
20260901142215 82 248 7.0 11.0 0.00 0.00 0.00
20260901141710 81 233 10.0 10.0 0.00 0.00 0.00
20260901141205 80 271 10.0 10.0 0.00 0.00 0.00
20260901140701 80 249 9.0 10.0 0.00 0.00 0.00
20260901140156 80 245 6.0 9.0 0.00 0.00 0.00
20260901135648 81 257 7.0 10.0 0.00 0.00 0.00
20260901135144 82 221 5.0 8.0 0.00 0.00 0.00
20260901134639 81 270 7.0 9.0 0.00 0.00 0.00
20260901134134 83 266 5.0 7.0 0.00 0.00 0.00
20260901133629 83 248 5.0 6.0 0.00 0.00 0.00
20260901133124 83 215 5.0 6.0 0.00 0.00 0.00
20260901132617 80 127 1.0 3.0 0.00 0.00 0.00
20260901132112 80 167 0.0 2.0 0.00 0.00 0.00
20260901131607 77 167 0.0 4.0 0.00 0.00 0.00
20260901131102 78 235 3.0 7.0 0.00 0.00 0.00
20260901130557 78 256 6.0 6.0 0.00 0.00 0.00
20260901130052 79 219 5.0 7.0 0.00 0.00 0.00
20260901125545 78 243 6.0 8.0 0.00 0.00 0.00
20260901125040 78 266 1.0 7.0 0.00 0.00 0.00
20260901124534 77 238 4.0 6.0 0.00 0.00 0.00
20260901124029 76 253 3.0 7.0 0.00 0.00 0.00
20260901123524 77 159 0.0 5.0 0.00 0.00 0.00
20260901123019 78 266 2.0 5.0 0.00 0.00 0.00
20260901122007 76 260 5.0 5.0 0.00 0.00 0.00
20260901121502 75 236 1.0 5.0 0.00 0.00 0.00
20260901120957 74 252 3.0 4.0 0.00 0.00 0.00
20260901120730 74 256 0.0 4.0 0.00 0.00 0.00
20260901120452 74 256 0.0 4.0 0.00 0.00 0.00
20260901115947 73 249 1.0 0.0 0.00 0.00 0.00
20260901115439 73 225 0.0 0.0 0.00 0.00 0.00
20260901114934 72 225 0.0 0.0 0.00 0.00 0.00
20260901114429 72 225 0.0 0.0 0.00 0.00 0.00
20260901113416 72 225 0.0 0.0 0.00 0.00 0.00
20260901112912 71 225 0.0 0.0 0.00 0.00 0.00
20260901111859 72 225 0.0 0.0 0.00 0.00 0.00
20260901111354 71 225 0.0 1.0 0.00 0.00 0.00
20260901110849 72 225 0.0 3.0 0.00 0.00 0.00
20260901110222 71 194 0.0 0.0 0.00 0.00 0.00
20260901105839 72 194 0.0 0.0 0.00 0.00 0.00
20260901105331 71 194 0.0 0.0 0.00 0.00 0.00
20260901104826 71 194 0.0 0.0 0.00 0.00 0.00
20260901104320 72 194 0.0 0.0 0.00 0.00 0.00
20260901103815 72 194 0.0 0.0 0.00 0.00 0.00
20260901103310 71 194 0.0 0.0 0.00 0.00 0.00
20260901102941 70 194 0.0 0.0 0.00 0.00 0.00
20260901102806 70 194 0.0 0.0 0.00 0.00 0.00
20260901102258 71 194 0.0 0.0 0.00 0.00 0.00
20260901101753 71 194 0.0 0.0 0.00 0.00 0.00
20260901101248 71 194 0.0 0.0 0.00 0.00 0.00
20260901100743 70 194 0.0 0.0 0.00 0.00 0.00
20260901100239 72 194 0.0 0.0 0.00 0.00 0.00
20260901095226 71 194 0.0 0.0 0.00 0.00 0.00
20260901094721 70 194 0.0 0.0 0.00 0.00 0.00
20260901094217 71 194 0.0 0.0 0.00 0.00 0.00
20260901093711 71 194 0.0 0.0 0.00 0.00 0.00
20260901093401 71 194 0.0 0.0 0.00 0.00 0.00
20260901093206 71 194 0.0 0.0 0.00 0.00 0.00
20260901092154 72 194 0.0 0.0 0.00 0.00 0.00
20260901091649 72 194 0.0 0.0 0.00 0.00 0.00
20260901091144 72 194 0.0 0.0 0.00 0.00 0.00
20260901090639 72 194 0.0 0.0 0.00 0.00 0.00
20260901090134 72 194 0.0 0.0 0.00 0.00 0.00
20260901085629 71 194 0.0 0.0 0.00 0.00 0.00
20260901085121 73 194 0.0 0.0 0.00 0.00 0.00
20260901084616 73 194 0.0 0.0 0.00 0.00 0.00
20260901084111 72 194 0.0 0.0 0.00 0.00 0.00
20260901083606 72 194 0.0 0.0 0.00 0.00 0.00
20260901083101 72 194 0.0 0.0 0.00 0.00 0.00
20260901082555 72 194 0.0 0.0 0.00 0.00 0.00
20260901082047 71 194 0.0 0.0 0.00 0.00 0.00
20260901081542 71 194 0.0 0.0 0.00 0.00 0.00
20260901081037 71 194 0.0 0.0 0.00 0.00 0.00
20260901080531 71 194 0.0 0.0 0.00 0.00 0.00
20260901080026 72 194 0.0 0.0 0.00 0.00 0.00
20260901075521 73 194 0.0 0.0 0.00 0.00 0.00
20260901075012 71 194 0.0 0.0 0.00 0.00 0.00
20260901074508 71 194 0.0 0.0 0.00 0.00 0.00
20260901074003 70 194 0.0 0.0 0.00 0.00 0.00
20260901073458 71 194 0.0 0.0 0.00 0.00 0.00
20260901072950 71 194 0.0 0.0 0.00 0.00 0.00
20260901072445 71 194 0.0 0.0 0.00 0.00 0.00
20260901071936 71 194 0.0 0.0 0.00 0.00 0.00
20260901071432 71 194 0.0 0.0 0.00 0.00 0.00
20260901070422 71 194 0.0 0.0 0.00 0.00 0.00
20260901065917 72 194 0.0 0.0 0.00 0.00 0.00
20260901065412 71 194 0.0 0.0 0.00 0.00 0.00
20260901064905 73 194 0.0 0.0 0.00 0.00 0.00
20260901064400 72 194 0.0 0.0 0.00 0.00 0.00
20260901063855 72 194 0.0 0.0 0.00 0.00 0.00
20260901063350 72 194 0.0 0.0 0.00 0.00 0.00
20260901062845 71 194 0.0 0.0 0.00 0.00 0.00
20260901062340 71 194 0.0 0.0 0.00 0.00 0.00
20260901061832 71 194 0.0 0.0 0.00 0.00 0.00
20260901061327 71 194 0.0 0.0 0.00 0.00 0.00
20260901060822 71 194 0.0 0.0 0.00 0.00 0.00
20260901060317 70 194 0.0 0.0 0.00 0.00 0.00
20260901055812 72 194 0.0 0.0 0.00 0.00 0.00
20260901055307 71 194 0.0 0.0 0.00 0.00 0.00
20260901054758 71 194 0.0 0.0 0.00 0.00 0.00
20260901054254 71 194 0.0 0.0 0.00 0.00 0.00
20260901053749 71 194 0.0 0.0 0.00 0.00 0.00
20260901053244 71 194 0.0 0.0 0.00 0.00 0.00
20260901052739 72 194 0.0 0.0 0.00 0.00 0.00
20260901052234 71 194 0.0 0.0 0.00 0.00 0.00
20260901051726 72 194 0.0 0.0 0.00 0.00 0.00
20260901051221 71 194 0.0 0.0 0.00 0.00 0.00
20260901050716 72 194 0.0 0.0 0.00 0.00 0.00
20260901050212 72 194 0.0 0.0 0.00 0.00 0.00
20260901045707 72 194 0.0 0.0 0.00 0.00 0.00
20260901045202 72 194 0.0 0.0 0.00 0.00 0.00
20260901044654 72 194 0.0 0.0 0.00 0.00 0.00
20260901044149 72 194 0.0 0.0 0.00 0.00 0.00
20260901043644 73 194 0.0 0.0 0.00 0.00 0.00
20260901043139 72 194 0.0 0.0 0.00 0.00 0.00
20260901042129 72 194 0.0 0.0 0.00 0.00 0.00
20260901041115 71 194 0.0 0.0 0.00 0.00 0.00
20260901040610 72 194 0.0 0.0 0.00 0.00 0.00
20260901040106 72 194 0.0 0.0 0.00 0.00 0.00
20260901035055 72 194 0.0 0.0 0.00 0.00 0.00
20260901034716 73 194 0.0 0.0 0.00 0.00 0.00
20260901034546 73 194 0.0 0.0 0.00 0.00 0.00
20260901034041 72 194 0.0 0.0 0.00 0.00 0.00
20260901033537 72 194 0.0 0.0 0.00 0.00 0.00
20260901033031 72 194 0.0 0.0 0.00 0.00 0.00
20260901032526 73 194 0.0 0.0 0.00 0.00 0.00
20260901032020 72 194 0.0 0.0 0.00 0.00 0.00
20260901031512 73 194 0.0 0.0 0.00 0.00 0.00
20260901031007 71 194 0.0 0.0 0.00 0.00 0.00
20260901030503 72 194 0.0 0.0 0.00 0.00 0.00
20260901025958 72 194 0.0 0.0 0.00 0.00 0.00
20260901025453 73 194 0.0 0.0 0.00 0.00 0.00
20260901024948 72 194 0.0 0.0 0.00 0.00 0.00
20260901024439 73 194 0.0 0.0 0.00 0.00 0.00
20260901023935 71 194 0.0 0.0 0.00 0.00 0.00
20260901022925 72 194 0.0 0.0 0.00 0.00 0.00
20260901022420 72 194 0.0 0.0 0.00 0.00 0.00
20260901021915 72 194 0.0 0.0 0.00 0.00 0.00
20260901021406 72 194 0.0 0.0 0.00 0.00 0.00
20260901020357 71 194 0.0 0.0 0.00 0.00 0.00
20260901015852 72 194 0.0 0.0 0.00 0.00 0.00
20260901015347 72 194 0.0 0.0 0.00 0.00 0.00
20260901014335 72 194 0.0 0.0 0.00 0.00 0.00
20260901013830 73 194 0.0 0.0 0.00 0.00 0.00
20260901013325 73 194 0.0 3.0 0.00 0.00 0.00
20260901012820 73 170 0.0 3.0 0.00 0.00 0.00
20260901012315 72 217 2.0 0.0 0.00 0.00 0.00
20260901011808 73 136 0.0 0.0 0.00 0.00 0.00
20260901011301 73 136 0.0 0.0 0.00 0.00 0.00
20260901010756 73 136 0.0 0.0 0.00 0.00 0.00
20260901010251 74 136 0.0 0.0 0.00 0.00 0.00
20260901005746 73 136 0.0 0.0 0.00 0.00 0.00
20260901005241 74 136 0.0 0.0 0.00 0.00 0.00
20260901004737 74 136 0.0 0.0 0.00 0.00 0.00
20260901004229 75 136 0.0 2.0 0.00 0.00 0.00
20260901003219 75 77 0.0 0.0 0.00 0.00 0.00
20260901002714 75 77 0.0 0.0 0.00 0.00 0.00
20260901002210 74 77 0.0 0.0 0.00 0.00 0.00
20260901001705 76 77 0.0 0.0 0.00 0.00 0.00
20260901001157 76 77 0.0 0.0 0.00 0.00 0.00
20260901000651 75 77 0.0 0.0 0.00 0.00 0.00
20260901000146 76 77 0.0 0.0 0.00 0.00 0.00
20260831235642 76 77 0.0 0.0 0.00 0.00 0.00
20260831235137 77 77 0.0 0.0 0.00 0.00 0.00
20260831234632 77 77 0.0 0.0 0.00 0.00 0.00
20260831234124 79 77 0.0 0.0 0.00 0.00 0.00
20260831233620 79 77 0.0 0.0 0.00 0.00 0.00
20260831232610 81 77 0.0 1.0 0.00 0.00 0.00
20260831232105 81 73 0.0 0.0 0.00 0.00 0.00
20260831231600 82 73 0.0 0.0 0.00 0.00 0.00
20260831231053 82 73 0.0 0.0 0.00 0.00 0.00
20260831230548 80 73 0.0 0.0 0.00 0.00 0.00
20260831230043 82 73 0.0 2.0 0.00 0.00 0.00
20260831225538 83 82 1.0 3.0 0.00 0.00 0.00
20260831225034 82 135 1.0 4.0 0.00 0.00 0.00
20260831224529 82 146 2.0 3.0 0.00 0.00 0.00
20260831224021 83 138 2.0 4.0 0.00 0.00 0.00
20260831223516 85 131 1.0 4.0 0.00 0.00 0.00
20260831223012 87 101 0.0 3.0 0.00 0.00 0.00
20260831222507 86 117 2.0 4.0 0.00 0.00 0.00
20260831222002 83 94 0.0 0.0 0.00 0.00 0.00
20260831221457 83 94 0.0 2.0 0.00 0.00 0.00
20260831220949 82 94 0.0 3.0 0.00 0.00 0.00
20260831220444 82 122 1.0 3.0 0.00 0.00 0.00
20260831215939 84 110 2.0 2.0 0.00 0.00 0.00
20260831215435 84 170 2.0 0.0 0.00 0.00 0.00
20260831214425 84 89 0.0 2.0 0.00 0.00 0.00
20260831213918 84 121 1.0 2.0 0.00 0.00 0.00
20260831213413 84 89 1.0 2.0 0.00 0.00 0.00
20260831212908 84 190 1.0 2.0 0.00 0.00 0.00
20260831212403 83 121 1.0 0.0 0.00 0.00 0.00
20260831211858 84 93 0.0 0.0 0.00 0.00 0.00
20260831211353 84 93 0.0 0.0 0.00 0.00 0.00
20260831210844 84 93 0.0 0.0 0.00 0.00 0.00
20260831210339 82 93 0.0 0.0 0.00 0.00 0.00
20260831205834 84 93 0.0 0.0 0.00 0.00 0.00
20260831205329 82 93 0.0 0.0 0.00 0.00 0.00
20260831204823 82 93 0.0 1.0 0.00 0.00 0.00
20260831204318 81 93 0.0 0.0 0.00 0.00 0.00
20260831203809 83 159 0.0 0.0 0.00 0.00 0.00
20260831202800 84 159 0.0 0.0 0.00 0.00 0.00
20260831202255 83 159 0.0 1.0 0.00 0.00 0.00
20260831200736 82 232 0.0 3.0 0.00 0.00 0.00
20260831200231 85 255 2.0 4.0 0.00 0.00 0.00
20260831195727 86 219 1.0 4.0 0.00 0.00 0.00
20260831194718 88 24 0.0 2.0 0.00 0.00 0.00
20260831194213 88 253 0.0 3.0 0.00 0.00 0.00
20260831193705 90 120 2.0 5.0 0.00 0.00 0.00
20260831193201 87 98 5.0 0.0 0.00 0.00 0.00
20260831192655 88 195 0.0 0.0 0.00 0.00 0.00
20260831192150 87 195 0.0 0.0 0.00 0.00 0.00
20260831191645 86 195 0.0 0.0 0.00 0.00 0.00
20260831191141 86 195 0.0 0.0 0.00 0.00 0.00